Weather History for KSGR - February, 2014

Change the Weather History Date:

Tuesday, February 18, 2014

  Actual Average (WUND) Record (WUND)
Temperature  
Mean Temperature 72 °F -  
Max Temperature 79 °F - - (-1)
Min Temperature 64 °F - - (-1)
Cooling Degree Days 6    
Growing Degree Days 22 (Base 50)    
Moisture  
Dew Point 64 °F    
Average Humidity 86    
Maximum Humidity 96    
Minimum Humidity 58    
Precipitation  
Precipitation 0.00 in - - ()
Sea Level Pressure  
Sea Level Pressure 30.04 in    
Wind  
Wind Speed 9 mph (South)    
Max Wind Speed 18 mph    
Max Gust Speed 25 mph    
Visibility 7 miles    
Events Fog , Rain    
Averages and records for this station are not official NWS values.
T = Trace of Precipitation, MM = Missing Value Source: NWS Daily Summary

Daily Weather History Graph

Daily Weather History Graph

Search for Another Location

Airport or City:

Trip Planner

Search our weather history database for the weather conditions in past years. The results will help you decide how hot, cold, wet, or windy it might be!

Date:

Astronomy

Feb. 18, 2014 Rise Set
Actual Time 6:59 AM CST 6:14 PM CST
Civil Twilight 6:35 AM CST 6:38 PM CST
Nautical Twilight 6:07 AM CST 7:06 PM CST
Astronomical Twilight 5:39 AM CST 7:34 PM CST
Moon 9:47 PM CST (2/18) 8:50 AM CST (2/18)
Length of Visible Light 12h 03m
Length of Day
11h 14m
Waning Gibbous, 87% of the Moon is Illuminated
Feb 18
Waning Gibbous
Feb 22
Last Quarter
Mar 1
New
Mar 8
First Quarter
Mar 16
Full

Hourly Weather History & Observations

Time (CST) Temp. Dew Point Humidity Pressure Visibility Wind Dir Wind Speed Gust Speed Precip Events Conditions
12:53 AM 66.9 °F 64.9 °F 93% 30.10 in 6.0 mi South 8.1 mph - N/A   Overcast
1:21 AM 66.9 °F 64.9 °F 93% 30.10 in 5.0 mi South 8.1 mph - N/A   Overcast
1:53 AM 66.9 °F 64.9 °F 93% 30.09 in 9.0 mi South 5.8 mph - N/A   Overcast
2:53 AM 66.9 °F 64.9 °F 93% 30.08 in 8.0 mi SSW 8.1 mph - N/A   Overcast
3:53 AM 66.9 °F 64.9 °F 93% 30.07 in 6.0 mi South 3.5 mph - N/A   Overcast
4:02 AM 66.0 °F 64.9 °F 96% 30.07 in 5.0 mi South 4.6 mph - N/A   Overcast
4:32 AM 66.0 °F 64.0 °F 93% 30.06 in 2.5 mi South 6.9 mph - N/A   Overcast
4:40 AM 66.0 °F 64.0 °F 93% 30.06 in 1.8 mi South 6.9 mph - N/A   Overcast
4:47 AM 66.2 °F 64.4 °F 94% 30.06 in 0.5 mi South 5.8 mph - N/A Fog Fog
4:53 AM 66.0 °F 64.9 °F 96% 30.06 in 0.5 mi South 5.8 mph - N/A Fog Fog
5:36 AM 66.0 °F 64.9 °F 96% 30.06 in 0.8 mi South 6.9 mph - N/A   Mist
5:53 AM 66.0 °F 64.9 °F 96% 30.06 in 1.0 mi South 6.9 mph - N/A   Mist
6:03 AM 66.0 °F 64.9 °F 96% 30.06 in 3.0 mi South 8.1 mph - N/A   Overcast
6:24 AM 66.0 °F 64.9 °F 96% 30.06 in 4.0 mi South 9.2 mph - N/A   Overcast
6:36 AM 66.0 °F 64.9 °F 96% 30.06 in 1.8 mi South 9.2 mph - N/A   Overcast
6:53 AM 66.0 °F 64.9 °F 96% 30.07 in 1.2 mi South 9.2 mph - N/A   Overcast
7:53 AM 66.0 °F 64.9 °F 96% 30.09 in 3.0 mi South 5.8 mph - N/A   Overcast
8:12 AM 66.0 °F 64.9 °F 96% 30.08 in 5.0 mi SSE 8.1 mph - N/A   Overcast
8:53 AM 66.9 °F 64.9 °F 93% 30.09 in 7.0 mi South 10.4 mph - N/A   Overcast
9:39 AM 69.1 °F 66.0 °F 90% 30.08 in 10.0 mi South 11.5 mph - N/A   Overcast
9:53 AM 70.0 °F 66.0 °F 87% 30.08 in 10.0 mi South 12.7 mph - N/A   Overcast
10:19 AM 72.0 °F 66.0 °F 81% 30.07 in 10.0 mi South 12.7 mph - N/A   Overcast
10:53 AM 72.0 °F 66.9 °F 84% 30.09 in 9.0 mi South 9.2 mph - N/A   Overcast
11:46 AM 73.9 °F 66.0 °F 76% 30.07 in 9.0 mi South 15.0 mph - N/A   Overcast
11:53 AM 73.9 °F 66.0 °F 76% 30.06 in 9.0 mi South 13.8 mph - N/A   Overcast
12:26 PM 77.0 °F 66.0 °F 69% 30.04 in 10.0 mi South 16.1 mph - N/A   Mostly Cloudy
12:53 PM 75.9 °F 64.9 °F 69% 30.04 in 10.0 mi SW 11.5 mph - 0.00 in Rain Light Rain
1:53 PM 79.0 °F 63.0 °F 58% 29.99 in 10.0 mi South 18.4 mph 24.2 mph 0.00 in   Scattered Clouds
2:53 PM 78.1 °F 62.1 °F 58% 29.97 in 10.0 mi South 13.8 mph 24.2 mph N/A   Scattered Clouds
3:53 PM 77.0 °F 61.0 °F 58% 29.97 in 10.0 mi South 13.8 mph 25.3 mph N/A   Scattered Clouds
4:53 PM 75.9 °F 61.0 °F 60% 29.97 in 10.0 mi SSW 15.0 mph - N/A   Partly Cloudy
5:53 PM 73.0 °F 60.1 °F 64% 29.97 in 10.0 mi SSW 11.5 mph - N/A   Clear
6:53 PM 69.1 °F 61.0 °F 75% 29.98 in 10.0 mi South 11.5 mph - N/A   Clear
7:53 PM 66.9 °F 63.0 °F 87% 29.98 in 10.0 mi South 10.4 mph - N/A   Clear
8:53 PM 66.0 °F 63.0 °F 90% 29.99 in 10.0 mi SSE 8.1 mph - N/A   Clear
9:53 PM 66.0 °F 63.0 °F 90% 29.98 in 10.0 mi SSE 12.7 mph - N/A   Clear
10:23 PM 64.9 °F 63.0 °F 93% 29.98 in 10.0 mi South 10.4 mph - N/A   Scattered Clouds
10:34 PM 64.9 °F 63.0 °F 93% 29.97 in 10.0 mi South 11.5 mph - N/A   Mostly Cloudy
10:53 PM 66.0 °F 64.0 °F 93% 29.98 in 10.0 mi South 16.1 mph 21.9 mph 0.00 in   Overcast
11:53 PM 66.0 °F 64.0 °F 93% 29.99 in 10.0 mi South 12.7 mph - N/A   Overcast